EW8300 Weather Reports


time (UTC)temp
C
wind
direction
speed
KPH
gust
KPH
rain 1hr
cm
rain 24hr
cm
rain mn
cm
humidity
%
barometer
mb
20260509023106 15 226 0.0 1.6 0.00 0.00 0.00 76 1009.0
20260509021517 15 210 0.0 0.0 0.00 0.00 0.00 79 1008.8
20260509020113 15 226 0.0 0.0 0.00 0.00 0.00 80 1008.3
20260509014518 16 226 0.0 0.0 0.00 0.00 0.00 77 1008.1
20260509013026 16 226 0.0 0.0 0.00 0.00 0.00 78 1008.0
20260509011600 16 226 0.0 0.0 0.00 0.00 0.00 75 1008.0
20260509010025 16 182 0.0 0.0 0.00 0.00 0.00 69 1007.7
20260509004515 17 182 0.0 0.0 0.00 0.00 0.00 67 1007.9
20260509003056 18 182 0.0 0.0 0.00 0.00 0.00 61 1007.9
20260509001623 18 182 0.0 0.0 0.00 0.00 0.00 56 1007.9
20260509000002 18 183 0.0 0.0 0.00 0.00 0.00 53 1007.8
20260508234502 18 197 0.0 0.0 0.00 0.00 0.00 52 1007.9
20260508233009 20 199 0.0 0.0 0.00 0.00 0.00 48 1007.9
20260508231506 20 227 0.0 0.0 0.00 0.00 0.00 44 1007.9
20260508230107 20 197 0.0 0.0 0.00 0.00 0.00 46 1008.0
20260508224514 20 195 0.0 0.0 0.00 0.00 0.00 43 1007.9
20260508223019 20 228 0.0 0.0 0.00 0.00 0.00 42 1007.8
20260508221542 20 237 0.0 0.0 0.00 0.00 0.00 41 1007.8
20260508220056 21 233 0.0 1.6 0.00 0.00 0.00 41 1007.8
20260508214608 21 265 0.0 9.7 0.00 0.00 0.00 38 1007.6
20260508213012 21 224 3.2 27.4 0.00 0.00 0.00 39 1007.8
20260508211519 22 253 3.2 27.4 0.00 0.00 0.00 36 1007.9
20260508210013 22 217 0.0 19.3 0.00 0.00 0.00 38 1008.0
20260508204512 22 178 0.0 12.9 0.00 0.00 0.00 37 1008.2
20260508203012 22 175 0.0 9.7 0.00 0.00 0.00 37 1008.5
20260508201555 21 179 0.0 9.7 0.00 0.00 0.00 40 1008.8
20260508200137 21 195 0.0 16.1 0.00 0.00 0.00 38 1009.2
20260508194604 21 258 0.0 3.2 0.00 0.00 0.00 38 1009.3
20260508193010 21 312 0.0 9.7 0.00 0.00 0.00 38 1009.6
20260508191542 21 290 0.0 1.6 0.00 0.00 0.00 40 1009.7
20260508190105 22 170 0.0 12.9 0.00 0.00 0.00 37 1009.7
20260508184615 21 217 0.0 12.9 0.00 0.00 0.00 39 1009.9
20260508183026 21 160 0.0 1.6 0.00 0.00 0.00 40 1010.0
20260508181616 21 279 0.0 12.9 0.00 0.00 0.00 39 1010.4
20260508180118 21 237 0.0 3.2 0.00 0.00 0.00 37 1010.6
20260508174516 21 194 0.0 9.7 0.00 0.00 0.00 39 1011.0
20260508173106 20 249 0.0 16.1 0.00 0.00 0.00 41 1011.2
20260508171606 21 77 0.0 12.9 0.00 0.00 0.00 43 1011.6
20260508170015 21 282 0.0 9.7 0.00 0.00 0.00 46 1011.7
20260508164535 20 181 0.0 9.7 0.00 0.00 0.00 45 1012.1
20260508163008 20 244 0.0 3.2 0.00 0.00 0.00 45 1012.3
20260508161506 20 54 0.0 9.7 0.00 0.00 0.00 46 1012.7
20260508160018 19 272 1.6 20.9 0.00 0.00 0.00 46 1012.8
20260508154527 19 299 0.0 17.7 0.00 0.00 0.00 46 1013.0
20260508153109 18 291 0.0 8.0 0.00 0.00 0.00 47 1013.0
20260508151604 18 309 0.0 14.5 0.00 0.00 0.00 46 1013.4
20260508150001 17 271 0.0 16.1 0.00 0.00 0.00 47 1013.6
20260508144530 17 283 0.0 12.9 0.00 0.00 0.00 46 1013.9
20260508143101 17 63 0.0 4.8 0.00 0.00 0.00 50 1013.9
20260508141607 16 245 0.0 12.9 0.00 0.00 0.00 51 1013.7
20260508140114 16 268 0.0 6.4 0.00 0.00 0.00 53 1014.1
20260508134511 15 252 0.0 12.9 0.00 0.00 0.00 54 1014.0
20260508133105 14 206 0.0 1.6 0.00 0.00 0.00 57 1013.9
20260508131557 13 171 0.0 3.2 0.00 0.00 0.00 59 1014.1
20260508130109 12 189 0.0 12.9 0.00 0.00 0.00 60 1014.2
20260508124521 12 245 0.0 8.0 0.00 0.00 0.00 62 1014.2
20260508123055 11 207 0.0 4.8 0.00 0.00 0.00 65 1014.1
20260508121545 8 265 0.0 0.0 0.00 0.00 0.00 78 1014.0
20260508114512 5 213 0.0 0.0 0.00 0.00 0.00 93 1013.8
20260508113013 4 199 0.0 0.0 0.00 0.00 0.00 93 1013.7
20260508111558 4 199 0.0 0.0 0.00 0.00 0.00 92 1013.6
20260508110105 4 200 0.0 0.0 0.00 0.00 0.00 92 1013.5
20260508104508 4 199 0.0 0.0 0.00 0.00 0.00 92 1013.3
20260508103034 4 199 0.0 0.0 0.00 0.00 0.00 92 1013.4
20260508101544 4 199 0.0 0.0 0.00 0.00 0.00 92 1013.4
20260508100014 4 199 0.0 0.0 0.00 0.00 0.00 92 1013.4
20260508094502 4 200 0.0 0.0 0.00 0.00 0.00 92 1013.3
20260508093058 4 200 0.0 0.0 0.00 0.00 0.00 92 1013.4
20260508091608 4 199 0.0 0.0 0.00 0.00 0.00 92 1013.4
20260508090008 3 199 0.0 0.0 0.00 0.00 0.00 91 1013.3
20260508084618 3 199 0.0 0.0 0.00 0.00 0.00 90 1013.4
20260508083126 3 200 0.0 0.0 0.00 0.00 0.00 90 1013.3
20260508081547 3 199 0.0 0.0 0.00 0.00 0.00 90 1013.3
20260508080007 3 200 0.0 0.0 0.00 0.00 0.00 90 1013.4
20260508074601 4 199 0.0 0.0 0.00 0.00 0.00 89 1013.4
20260508073012 4 200 0.0 0.0 0.00 0.00 0.00 90 1013.4
20260508071539 4 199 0.0 0.0 0.00 0.00 0.00 90 1013.3
20260508070007 4 199 0.0 0.0 0.00 0.00 0.00 89 1013.4
20260508064539 4 199 0.0 0.0 0.00 0.00 0.00 89 1013.7
20260508063001 5 199 0.0 0.0 0.00 0.00 0.00 89 1013.9
20260508061600 5 200 0.0 0.0 0.00 0.00 0.00 88 1014.0
20260508060100 5 199 0.0 0.0 0.00 0.00 0.00 88 1014.2
20260508054502 5 200 0.0 0.0 0.00 0.00 0.00 88 1014.3
20260508053102 5 199 0.0 0.0 0.00 0.00 0.00 87 1014.2
20260508051555 5 200 0.0 0.0 0.00 0.00 0.00 87 1014.1
20260508050026 6 200 0.0 0.0 0.00 0.00 0.00 87 1014.1
20260508044603 5 199 0.0 0.0 0.00 0.00 0.00 87 1014.0
20260508043020 5 200 0.0 0.0 0.00 0.00 0.00 86 1014.1
20260508041626 6 199 0.0 0.0 0.00 0.00 0.00 86 1014.3
20260508040034 6 199 0.0 0.0 0.00 0.00 0.00 85 1014.1
20260508034516 6 200 0.0 0.0 0.00 0.00 0.00 85 1014.1
20260508033005 6 200 0.0 0.0 0.00 0.00 0.00 84 1014.2
20260508031539 7 199 0.0 0.0 0.00 0.00 0.00 83 1014.1
20260508030103 7 200 0.0 0.0 0.00 0.00 0.00 81 1014.1
20260508024552 7 200 0.0 0.0 0.00 0.00 0.00 79 1014.0